This is the latest recevied weather packets stored in our database for station/object W0SS-13. If no packets are shown the sender has not sent any weather packets the latest 1 day(s).
| Time | Temp. | Humidity | Pressure | Rain* | Wind** | Luminosity | Snow |
|---|---|---|---|---|---|---|---|
| 1778017873 | 10.56° C | 79% | 1012.7 hPa | 0 mm | 0.89 m/s, 334° | 154 W/m² | - |
| 1778017571 | 10.56° C | 79% | 1013 hPa | 0 mm | 0.89 m/s, 350° | 134 W/m² | - |
| 1778017268 | 10.56° C | 78% | 1012.8 hPa | 0 mm | 0.45 m/s, 83° | 149 W/m² | - |
| 1778016966 | 10.56° C | 79% | 1012.7 hPa | 0 mm | 0.89 m/s, 26° | 156 W/m² | - |
| 1778016662 | 10.56° C | 79% | 1013.2 hPa | 0 mm | 0 m/s | 153 W/m² | - |
| 1778016358 | 10.56° C | 79% | 1012.9 hPa | 0 mm | 0 m/s | 168 W/m² | - |
| 1778016065 | 10.56° C | 78% | 1013 hPa | 0 mm | 0 m/s | 165 W/m² | - |
| 1778015752 | 10.56° C | 78% | 1012.7 hPa | 0 mm | 1.79 m/s, 349° | 216 W/m² | - |
| 1778015450 | 10.56° C | 78% | 1012.9 hPa | 0 mm | 0.89 m/s, 10° | 213 W/m² | - |
| 1778015146 | 10.56° C | 78% | 1013.1 hPa | 0 mm | 0.89 m/s, 342° | 218 W/m² | - |
| 1778014843 | 10° C | 79% | 1013.2 hPa | 0 mm | 0.89 m/s, 23° | 279 W/m² | - |
| 1778014541 | 10° C | 78% | 1013.1 hPa | 0 mm | 0 m/s | 157 W/m² | - |
| 1778014238 | 10° C | 79% | 1013.2 hPa | 0 mm | 0.89 m/s, 39° | 209 W/m² | - |
| 1778013935 | 10° C | 79% | 1013.1 hPa | 0 mm | 2.24 m/s, 4° | 208 W/m² | - |
| 1778013633 | 9.44° C | 78% | 1012.9 hPa | 0 mm | 1.34 m/s, 358° | 178 W/m² | - |
| 1778013329 | 9.44° C | 79% | 1012.8 hPa | 0 mm | 1.79 m/s, 28° | 107 W/m² | - |
| 1778013027 | 9.44° C | 80% | 1013.3 hPa | 0 mm | 1.79 m/s, 329° | 98 W/m² | - |
| 1778012722 | 9.44° C | 82% | 1013.5 hPa | 0 mm | 1.34 m/s, 359° | 99 W/m² | - |
| 1778012418 | 9.44° C | 82% | 1013.2 hPa | 0 mm | 1.34 m/s, 305° | 103 W/m² | - |
| 1778012116 | 10° C | 82% | 1013.2 hPa | 0 mm | 0.89 m/s, 319° | 113 W/m² | - |
| 1778011813 | 10° C | 81% | 1013.2 hPa | 0 mm | 1.79 m/s, 359° | 176 W/m² | - |
| 1778011511 | 9.44° C | 79% | 1012.9 hPa | 0 mm | 1.79 m/s, 323° | 205 W/m² | - |
| 1778011208 | 9.44° C | 79% | 1013.1 hPa | 0 mm | 2.24 m/s, 10° | 163 W/m² | - |
| 1778010904 | 9.44° C | 81% | 1013.2 hPa | 0 mm | 0.89 m/s, 63° | 184 W/m² | - |
| 1778010601 | 9.44° C | 82% | 1013.3 hPa | 0 mm | 1.34 m/s, 337° | 157 W/m² | - |
* Rain latest hour (hover to see other rain measurements)
** Current wind speed in m/s (hover to see current wind gust speed)